TimeEDT,TemperatureF,Dew PointF,Humidity,Sea Level PressureIn,VisibilityMPH,Wind Direction,Wind SpeedMPH,Gust SpeedMPH,PrecipitationIn,Events,Conditions,WindDirDegrees,DateUTC
12:16 AM,65.1,61.0,86,29.99,10.0,SSE,6.9,-,N/A,,Scattered Clouds,160,2013-07-26 04:16:00
12:36 AM,67.1,61.7,83,29.99,10.0,South,6.9,-,N/A,,Scattered Clouds,170,2013-07-26 04:36:00
12:55 AM,67.1,62.8,86,29.99,10.0,South,6.9,-,N/A,,Scattered Clouds,190,2013-07-26 04:55:00
1:16 AM,67.3,64.0,89,29.99,10.0,SSW,4.6,-,N/A,Rain,Light Rain,210,2013-07-26 05:16:00
1:36 AM,66.6,61.7,84,30.00,10.0,SW,10.4,16.1,0.02,Rain,Rain,220,2013-07-26 05:36:00
1:55 AM,64.2,58.3,81,30.01,10.0,SW,9.2,18.4,0.08,Rain,Rain,220,2013-07-26 05:55:00
2:16 AM,63.7,59.7,87,30.00,10.0,SW,9.2,17.3,0.04,Rain,Rain,220,2013-07-26 06:16:00
2:36 AM,63.0,59.9,90,29.98,7.0,South,6.9,-,0.11,Rain,Rain,190,2013-07-26 06:36:00
2:55 AM,62.6,58.8,87,29.98,10.0,South,10.4,17.3,0.12,Rain,Light Rain,180,2013-07-26 06:55:00
3:16 AM,62.1,58.3,87,29.97,10.0,South,11.5,19.6,N/A,,Overcast,170,2013-07-26 07:16:00
3:36 AM,62.2,58.1,86,29.97,10.0,South,11.5,24.2,N/A,,Overcast,180,2013-07-26 07:36:00
3:55 AM,61.9,56.3,82,29.97,10.0,South,10.4,17.3,N/A,,Overcast,170,2013-07-26 07:55:00
4:16 AM,62.1,57.0,84,29.97,10.0,SSE,12.7,19.6,N/A,,Overcast,160,2013-07-26 08:16:00
4:35 AM,62.1,55.6,79,29.96,10.0,South,13.8,19.6,N/A,,Overcast,170,2013-07-26 08:35:00
4:55 AM,62.2,55.4,78,29.96,10.0,South,12.7,23.0,N/A,,Overcast,170,2013-07-26 08:55:00
5:16 AM,61.7,56.1,82,29.94,10.0,South,11.5,19.6,N/A,Rain,Light Rain,170,2013-07-26 09:16:00
5:35 AM,61.9,56.3,82,29.93,10.0,South,12.7,19.6,N/A,,Mostly Cloudy,170,2013-07-26 09:35:00
5:55 AM,62.4,55.6,78,29.94,10.0,South,11.5,19.6,N/A,,Scattered Clouds,170,2013-07-26 09:55:00
6:16 AM,62.2,55.8,79,29.94,10.0,South,11.5,19.6,N/A,,Scattered Clouds,180,2013-07-26 10:16:00
6:35 AM,62.2,56.5,81,29.94,10.0,South,9.2,17.3,N/A,,Scattered Clouds,170,2013-07-26 10:35:00
6:55 AM,62.8,56.7,80,29.94,10.0,South,9.2,17.3,N/A,,Scattered Clouds,180,2013-07-26 10:55:00
7:16 AM,62.8,56.5,80,29.94,10.0,South,9.2,16.1,N/A,,Scattered Clouds,170,2013-07-26 11:16:00
7:35 AM,63.5,55.9,76,29.94,10.0,South,9.2,16.1,N/A,,Clear,180,2013-07-26 11:35:00
7:55 AM,63.9,56.1,76,29.94,10.0,South,8.1,-,N/A,,Scattered Clouds,180,2013-07-26 11:55:00
8:16 AM,65.3,56.3,73,29.94,10.0,South,9.2,16.1,N/A,,Overcast,190,2013-07-26 12:16:00
8:35 AM,64.4,56.1,74,29.94,10.0,South,8.1,-,N/A,,Overcast,180,2013-07-26 12:35:00
8:55 AM,66.2,56.5,71,29.94,10.0,South,11.5,17.3,N/A,,Scattered Clouds,180,2013-07-26 12:55:00
9:16 AM,66.7,55.9,68,29.94,10.0,South,8.1,-,N/A,,Clear,190,2013-07-26 13:16:00
9:35 AM,67.6,56.5,67,29.94,10.0,South,5.8,-,N/A,,Scattered Clouds,190,2013-07-26 13:35:00
9:55 AM,68.2,57.0,67,29.94,10.0,South,9.2,-,N/A,,Scattered Clouds,190,2013-07-26 13:55:00
10:16 AM,68.0,57.2,68,29.94,10.0,South,5.8,-,N/A,,Overcast,180,2013-07-26 14:16:00
10:35 AM,69.3,58.1,68,29.94,10.0,SSE,6.9,-,N/A,,Overcast,160,2013-07-26 14:35:00
10:56 AM,69.6,58.1,67,29.94,10.0,South,4.6,-,N/A,,Mostly Cloudy,180,2013-07-26 14:56:00
11:16 AM,69.8,59.2,69,29.94,10.0,South,4.6,-,N/A,,Overcast,180,2013-07-26 15:16:00
11:35 AM,69.8,59.9,71,29.94,10.0,South,3.5,-,N/A,,Overcast,190,2013-07-26 15:35:00
11:56 AM,70.0,60.6,72,29.94,10.0,SSE,3.5,-,N/A,,Overcast,160,2013-07-26 15:56:00
12:16 PM,68.2,61.7,80,29.94,7.0,South,6.9,-,N/A,Rain,Light Rain,190,2013-07-26 16:16:00
12:35 PM,68.2,62.1,81,29.93,10.0,SSE,5.8,-,N/A,,Overcast,160,2013-07-26 16:35:00
12:56 PM,69.3,62.4,79,29.93,10.0,SE,4.6,-,N/A,,Overcast,140,2013-07-26 16:56:00
1:16 PM,71.6,62.8,74,29.92,10.0,SSE,5.8,-,N/A,,Mostly Cloudy,150,2013-07-26 17:16:00
1:35 PM,71.4,61.3,70,29.91,10.0,SSE,3.5,-,N/A,,Mostly Cloudy,150,2013-07-26 17:35:00
1:56 PM,71.6,61.7,71,29.91,10.0,ESE,3.5,-,N/A,,Overcast,110,2013-07-26 17:56:00
2:16 PM,71.6,63.1,75,29.90,10.0,East,4.6,-,N/A,,Overcast,90,2013-07-26 18:16:00
2:35 PM,70.2,62.2,76,29.89,10.0,East,6.9,-,N/A,,Overcast,90,2013-07-26 18:35:00
2:56 PM,67.8,62.6,83,29.88,10.0,East,9.2,-,N/A,,Light Drizzle,90,2013-07-26 18:56:00
3:16 PM,66.2,63.3,90,29.87,7.0,East,10.4,16.1,0.01,Rain,Light Rain,100,2013-07-26 19:16:00
3:35 PM,66.2,63.5,91,29.87,5.0,ESE,8.1,17.3,0.04,Rain,Light Rain,110,2013-07-26 19:35:00
3:56 PM,66.4,64.2,93,29.86,3.0,SE,5.8,-,0.13,Rain,Rain,130,2013-07-26 19:56:00
4:15 PM,67.8,65.1,91,29.86,10.0,ESE,4.6,-,N/A,,Overcast,110,2013-07-26 20:15:00
4:35 PM,66.9,64.0,90,29.85,7.0,ESE,5.8,-,0.01,Rain,Light Rain,110,2013-07-26 20:35:00
4:56 PM,66.4,63.9,92,29.85,2.0,ESE,6.9,-,0.14,Rain,Rain,110,2013-07-26 20:56:00
5:15 PM,67.3,64.4,90,29.85,10.0,South,5.8,-,N/A,Rain,Light Rain,170,2013-07-26 21:15:00
5:35 PM,68.0,64.6,89,29.86,10.0,South,6.9,-,0.01,,Overcast,190,2013-07-26 21:35:00
5:56 PM,67.6,65.1,92,29.85,10.0,South,3.5,-,0.01,,Overcast,190,2013-07-26 21:56:00
6:15 PM,68.0,65.3,91,29.85,7.0,South,15.0,23.0,N/A,Rain,Light Rain,190,2013-07-26 22:15:00
6:35 PM,67.3,63.7,88,29.86,10.0,West,10.4,25.3,N/A,Rain,Light Rain,270,2013-07-26 22:35:00
6:56 PM,63.5,60.6,90,29.85,5.0,SW,16.1,24.2,0.09,Rain,Rain,220,2013-07-26 22:56:00
7:15 PM,63.1,60.6,91,29.85,7.0,SSW,16.1,23.0,0.03,Rain,Rain,210,2013-07-26 23:15:00
7:35 PM,63.9,61.2,91,29.85,10.0,SSW,17.3,26.5,0.04,Rain,Light Rain,210,2013-07-26 23:35:00
7:56 PM,63.3,60.3,90,29.85,10.0,SSW,11.5,18.4,0.04,,Overcast,210,2013-07-26 23:56:00
8:15 PM,62.8,59.9,90,29.85,10.0,South,11.5,18.4,N/A,Rain,Light Rain,190,2013-07-27 00:15:00
8:36 PM,62.6,59.9,91,29.87,10.0,SW,9.2,18.4,N/A,Rain,Light Rain,220,2013-07-27 00:36:00
8:56 PM,62.6,59.9,91,29.87,10.0,SSW,9.2,17.3,N/A,Rain,Light Rain,200,2013-07-27 00:56:00
9:15 PM,62.6,59.9,91,29.85,10.0,South,12.7,19.6,N/A,Rain,Light Rain,180,2013-07-27 01:15:00
9:36 PM,63.0,59.9,90,29.85,10.0,SSE,6.9,-,N/A,Rain,Light Rain,160,2013-07-27 01:36:00
9:56 PM,63.5,60.4,90,29.86,10.0,South,8.1,17.3,N/A,,Overcast,180,2013-07-27 01:56:00
10:15 PM,63.5,59.9,88,29.85,10.0,South,8.1,-,N/A,,Overcast,180,2013-07-27 02:15:00
10:36 PM,63.5,59.9,88,29.85,10.0,South,6.9,-,N/A,Rain,Light Rain,190,2013-07-27 02:36:00
10:56 PM,63.5,59.9,88,29.85,10.0,SSW,6.9,-,N/A,,Overcast,200,2013-07-27 02:56:00
11:15 PM,63.5,59.5,87,29.85,10.0,SSW,5.8,-,N/A,,Overcast,200,2013-07-27 03:15:00
11:36 PM,63.1,59.7,89,29.84,10.0,SSW,6.9,-,N/A,,Overcast,200,2013-07-27 03:36:00
11:56 PM,63.0,59.5,89,29.84,10.0,SSW,5.8,-,N/A,,Overcast,200,2013-07-27 03:56:00